• In Uzbekistan
  • List of Countries
  • For 7 days
  • Water Temperature
  • Weather Map
  • Weather Widgets
  • user-avatar
    Login

    Hourly Weather Mendoza

    Today, 26 January, Sunday

    Time Temperature Precipitation Wind Pressure Humidity
    00:00 +29°C° 0 mm 1 mps 698 mmHg 29%
    01:00 +28°C° 0 mm 1 mps 697 mmHg 30%
    02:00 +28°C° 0 mm 2 mps 697 mmHg 30%
    03:00 +28°C° 0 mm 2 mps 697 mmHg 30%
    04:00 +28°C° 0 mm 3 mps 697 mmHg 30%
    05:00 +29°C° 0 mm 3 mps 698 mmHg 29%
    06:00 +30°C° 0 mm 4 mps 698 mmHg 27%
    07:00 +30°C° 0 mm 4 mps 699 mmHg 26%
    08:00 +33°C° 0 mm 4 mps 699 mmHg 25%
    09:00 +34°C° 0 mm 4 mps 699 mmHg 24%
    10:00 +35°C° 0 mm 4 mps 699 mmHg 23%
    11:00 +36°C° 0 mm 4 mps 699 mmHg 22%
    12:00 +37°C° 0 mm 4 mps 699 mmHg 21%
    13:00 +37°C° 0 mm 4 mps 699 mmHg 21%
    14:00 +38°C° 0 mm 4 mps 698 mmHg 20%
    15:00 +39°C° 0 mm 5 mps 698 mmHg 19%
    16:00 +39°C° 0 mm 5 mps 697 mmHg 19%
    17:00 +37°C° 0 mm 5 mps 698 mmHg 20%
    18:00 +36°C° 0 mm 4 mps 698 mmHg 21%
    19:00 +35°C° 0 mm 4 mps 699 mmHg 22%
    20:00 +34°C° 0.1 mm 4 mps 699 mmHg 25%
    21:00 +33°C° 0.1 mm 3 mps 700 mmHg 27%
    22:00 +31°C° 0.1 mm 3 mps 701 mmHg 30%
    23:00 +30°C° 0 mm 2 mps 701 mmHg 34%

    Tomorrow, 27 January, Monday

    Time Temperature Precipitation Wind Pressure Humidity
    00:00 +29°C° 0 mm 2 mps 700 mmHg 38%
    01:00 +28°C° 0 mm 1 mps 700 mmHg 42%
    02:00 +28°C° 0 mm 1 mps 700 mmHg 44%
    03:00 +27°C° 0 mm 1 mps 700 mmHg 46%
    04:00 +27°C° 0 mm 1 mps 699 mmHg 48%
    05:00 +27°C° 0 mm 1 mps 700 mmHg 46%
    06:00 +28°C° 0 mm 2 mps 700 mmHg 44%
    07:00 +28°C° 0 mm 2 mps 700 mmHg 43%
    08:00 +29°C° 0 mm 2 mps 700 mmHg 41%
    09:00 +31°C° 0 mm 3 mps 699 mmHg 39%
    10:00 +33°C° 0 mm 3 mps 699 mmHg 37%
    11:00 +34°C° 0.1 mm 4 mps 699 mmHg 34%
    12:00 +36°C° 0.1 mm 5 mps 698 mmHg 31%
    13:00 +38°C° 0.1 mm 7 mps 698 mmHg 28%
    14:00 +38°C° 0.1 mm 7 mps 698 mmHg 27%
    15:00 +38°C° 0.1 mm 7 mps 697 mmHg 27%
    16:00 +38°C° 0.1 mm 8 mps 697 mmHg 27%
    17:00 +35°C° 0.2 mm 7 mps 697 mmHg 30%
    18:00 +34°C° 0.2 mm 6 mps 697 mmHg 34%
    19:00 +32°C° 0.2 mm 5 mps 697 mmHg 37%
    20:00 +30°C° 0.3 mm 5 mps 697 mmHg 39%
    21:00 +30°C° 0.3 mm 4 mps 697 mmHg 42%
    22:00 +29°C° 0.3 mm 3 mps 698 mmHg 45%
    23:00 +28°C° 0 mm 3 mps 697 mmHg 46%

    Day after tomorrow, 28 January, Tuesday

    Time Temperature Precipitation Wind Pressure Humidity
    00:00 +28°C° 0 mm 2 mps 697 mmHg 48%
    01:00 +27°C° 0 mm 1 mps 696 mmHg 49%
    02:00 +27°C° 0 mm 1 mps 696 mmHg 51%
    03:00 +26°C° 0 mm 1 mps 696 mmHg 52%
    04:00 +24°C° 0 mm 0 mps 696 mmHg 54%
    05:00 +24°C° 0.3 mm 0 mps 696 mmHg 51%
    06:00 +25°C° 0.3 mm 0 mps 696 mmHg 48%
    07:00 +26°C° 0.3 mm 0 mps 696 mmHg 45%
    08:00 +29°C° 0.1 mm 1 mps 696 mmHg 42%
    09:00 +30°C° 0.1 mm 1 mps 695 mmHg 39%
    10:00 +31°C° 0.1 mm 1 mps 695 mmHg 37%
    11:00 +32°C° 0 mm 2 mps 695 mmHg 34%
    12:00 +34°C° 0 mm 2 mps 694 mmHg 32%
    13:00 +35°C° 0 mm 2 mps 694 mmHg 30%
    14:00 +36°C° 0.1 mm 2 mps 693 mmHg 28%
    15:00 +36°C° 0.1 mm 3 mps 693 mmHg 27%
    16:00 +37°C° 0.1 mm 3 mps 692 mmHg 25%
    17:00 +35°C° 0.1 mm 3 mps 693 mmHg 28%
    18:00 +34°C° 0.1 mm 3 mps 693 mmHg 31%
    19:00 +33°C° 0.1 mm 4 mps 693 mmHg 34%
    20:00 +29°C° 1.7 mm 4 mps 693 mmHg 50%
    21:00 +26°C° 1.7 mm 4 mps 694 mmHg 65%
    22:00 +21°C° 1.7 mm 5 mps 694 mmHg 81%
    23:00 +21°C° 0.9 mm 4 mps 694 mmHg 79%

    29 January, Wednesday

    Time Temperature Precipitation Wind Pressure Humidity
    00:00 +22°C° 0.9 mm 3 mps 695 mmHg 78%
    01:00 +23°C° 0.9 mm 2 mps 695 mmHg 77%
    02:00 +23°C° 0.5 mm 2 mps 695 mmHg 76%
    03:00 +21°C° 0.5 mm 2 mps 696 mmHg 75%
    04:00 +21°C° 0.5 mm 2 mps 696 mmHg 75%
    05:00 +21°C° 0.2 mm 2 mps 696 mmHg 75%
    06:00 +21°C° 0.2 mm 2 mps 696 mmHg 76%
    07:00 +21°C° 0.2 mm 2 mps 696 mmHg 76%
    08:00 +23°C° 0.1 mm 2 mps 697 mmHg 75%
    09:00 +23°C° 0.1 mm 2 mps 697 mmHg 73%
    10:00 +23°C° 0.1 mm 2 mps 697 mmHg 71%
    11:00 +24°C° 0.1 mm 3 mps 697 mmHg 67%
    12:00 +25°C° 0.1 mm 3 mps 697 mmHg 63%
    13:00 +26°C° 0.1 mm 3 mps 697 mmHg 59%
    14:00 +27°C° 0.1 mm 3 mps 696 mmHg 58%
    15:00 +27°C° 0.1 mm 3 mps 696 mmHg 57%
    16:00 +27°C° 0.1 mm 3 mps 696 mmHg 56%
    17:00 +26°C° 0.1 mm 3 mps 697 mmHg 57%
    18:00 +26°C° 0.1 mm 3 mps 697 mmHg 58%
    19:00 +26°C° 0.1 mm 2 mps 698 mmHg 59%
    20:00 +25°C° 0.2 mm 2 mps 698 mmHg 61%
    21:00 +25°C° 0.2 mm 1 mps 698 mmHg 63%
    22:00 +24°C° 0.2 mm 1 mps 699 mmHg 65%
    23:00 +24°C° 0.1 mm 1 mps 698 mmHg 64%

    30 January, Thursday

    Time Temperature Precipitation Wind Pressure Humidity
    00:00 +24°C° 0.1 mm 1 mps 698 mmHg 63%
    01:00 +23°C° 0.1 mm 1 mps 698 mmHg 62%
    02:00 +23°C° 0 mm 1 mps 698 mmHg 61%
    03:00 +22°C° 0 mm 1 mps 698 mmHg 59%
    04:00 +22°C° 0 mm 1 mps 698 mmHg 57%
    05:00 +23°C° 0 mm 1 mps 698 mmHg 52%
    06:00 +23°C° 0 mm 1 mps 699 mmHg 47%
    07:00 +24°C° 0 mm 1 mps 699 mmHg 42%
    08:00 +25°C° 0 mm 1 mps 699 mmHg 41%
    09:00 +27°C° 0 mm 2 mps 699 mmHg 39%
    10:00 +28°C° 0 mm 3 mps 699 mmHg 38%
    11:00 +29°C° 0 mm 3 mps 698 mmHg 36%
    12:00 +30°C° 0 mm 4 mps 698 mmHg 35%
    13:00 +33°C° 0 mm 5 mps 697 mmHg 33%
    14:00 +33°C° 0 mm 5 mps 697 mmHg 32%
    15:00 +34°C° 0 mm 5 mps 696 mmHg 32%
    16:00 +34°C° 0 mm 5 mps 696 mmHg 31%
    17:00 +33°C° 0 mm 5 mps 696 mmHg 33%
    18:00 +32°C° 0 mm 4 mps 696 mmHg 35%
    19:00 +30°C° 0 mm 3 mps 696 mmHg 37%
    20:00 +30°C° 0 mm 3 mps 697 mmHg 39%
    21:00 +29°C° 0 mm 2 mps 697 mmHg 41%
    22:00 +28°C° 0 mm 2 mps 698 mmHg 43%
    23:00 +28°C° 0 mm 2 mps 697 mmHg 44%

    31 January, Friday

    Time Temperature Precipitation Wind Pressure Humidity
    00:00 +28°C° 0 mm 1 mps 697 mmHg 45%
    01:00 +27°C° 0 mm 1 mps 696 mmHg 46%
    02:00 +27°C° 0 mm 1 mps 697 mmHg 47%
    03:00 +26°C° 0 mm 1 mps 697 mmHg 48%
    04:00 +25°C° 0 mm 1 mps 697 mmHg 50%
    05:00 +27°C° 0 mm 1 mps 697 mmHg 46%
    06:00 +28°C° 0 mm 1 mps 698 mmHg 41%
    07:00 +29°C° 0 mm 2 mps 698 mmHg 37%
    08:00 +31°C° 0 mm 2 mps 699 mmHg 35%
    09:00 +32°C° 0 mm 2 mps 699 mmHg 32%
    10:00 +34°C° 0 mm 2 mps 699 mmHg 30%
    11:00 +35°C° 0 mm 3 mps 699 mmHg 27%
    12:00 +36°C° 0 mm 4 mps 698 mmHg 24%
    13:00 +37°C° 0 mm 4 mps 698 mmHg 21%
    14:00 +38°C° 0 mm 4 mps 698 mmHg 20%
    15:00 +39°C° 0 mm 5 mps 697 mmHg 20%
    16:00 +39°C° 0 mm 5 mps 697 mmHg 19%
    17:00 +37°C° 0 mm 5 mps 697 mmHg 21%
    18:00 +35°C° 0 mm 4 mps 698 mmHg 22%
    19:00 +34°C° 0 mm 3 mps 698 mmHg 24%
    20:00 +33°C° 0 mm 3 mps 698 mmHg 26%
    21:00 +31°C° 0 mm 2 mps 698 mmHg 28%
    22:00 +31°C° 0 mm 2 mps 698 mmHg 30%
    23:00 +30°C° 0 mm 2 mps 698 mmHg 32%
    Show more